Location: Calvatone
(45.1167°N, 10.4333°E)
Time: 12:21:44
(UTC+00:00)

Feng Yun 1-1 Rocket - Pass Details

Date: 28 January 2023
Orbit: 830 x 933 km, 99.1° (Epoch: 29 March)

Event Time Altitude Azimuth Distance (km) Brightness Sun altitude
Rises 18:45:07 0° 170° (S) 3,492 7.3 -25.6°
Reaches altitude 10° 18:47:33 10° 172° (S) 2,541 6.6 -26.1°
Maximum altitude 18:53:11 71° 257° (WSW) 918 4.4 -27.1°
Drops below altitude 10° 18:58:42 10° 341° (NNW) 2,492 6.9 -28.0°
Sets 19:01:04 0° 344° (NNW) 3,420 7.6 -28.5°
